CAPE
0 0 0 0 0 0 0 0 0 0 0 0 0 0 0 2 5 6 1 0 0 0
0 0 0 0 0 0 0 0 0 0 0 0 0 0 0 0 0 2 6 6 0 6
0 0 0 0 0 0 0 0 0 0 0 0 0 0 0 0 3 3 1 1 3 2
0 0 0 1 1 0 0 0 0 0 0 0 0 0 0 0 0 0 0 0 0 0
0 0 0 0 0 0 0 0 0 0 0 0 0 0 0 0 0 0 0 0 0 0
0 0 0 0 0 0 0 0 0 0 0 0 0 0 0 0 0 0 0 0 0 0
0 0 0 0 0 0 0 1 0 0 0 0 0 0 0 0 0 0 0 0 0 0
0 0 0 0 0 0 0 0 0 0 0 0 0 0 0 0 0 0 0 0 0 0
0 0 0 0 0 0 0 0 0 0 0 0 0 0 0 0 5 2 0 0 0 0
0 0 0 0 0 0 0 0 0 0 0 0 0 0 0 0 2 1 0 0 0 0
0 0 0 0 0 0 0 0 0 0 0 0 0 0 0 0 0 0 0 0 0 0
0 0 0 0 0 0 0 0 0 0 0 0 0 0 0 0 0 0 0 0 0 0
0 0 0 0 0 0 0 0 0 0 0 0 0 0 0 0 0 0 0 0 0 0
0 0 0 0 0 0 0 0 0 0 0 0 0 0 0 0 0 0 0 0 0 0
CIN
-0 -0 -0 -0 -0 -0 -0 -0 -0 -0 -0 -0 -0 -0 -0 -50 -46 -37 -33 -0 -0 -0
-0 -0 -0 -0 -0 -0 -0 -0 -0 -0 -0 -0 -0 -0 -0 -0 -5 -38 -28 -20 -4 -14
-0 -0 -0 -0 -0 -0 -0 -0 -0 -0 -0 -0 -0 -0 -0 -0 -42 -36 -59 -73 -77 -23
-0 -0 -0 -32 -47 -6 -0 -0 -0 -0 -0 -0 -0 -0 -0 -0 -0 -20 -0 -0 -0 -0
-0 -0 -0 -1 -3 -0 -0 -0 -0 -9 -0 -0 -0 -0 -0 -0 -0 -0 -0 -0 -0 -0
-0 -0 -0 -0 -0 -0 -0 -0 -0 -0 -0 -0 -0 -0 -0 -0 -0 -0 -0 -0 -0 -0
-0 -0 -0 -0 -0 -0 -0 -14 -16 -0 -0 -0 -0 -0 -0 -0 -0 -0 -0 -0 -0 -0
-0 -0 -0 -0 -0 -0 -0 -0 -0 -0 -0 -0 -0 -0 -0 -0 -0 -0 -0 -0 -0 -0
-0 -0 -0 -0 -0 -0 -0 -0 -0 -0 -0 -0 -0 -0 -0 -0 -27 -19 -0 -0 -0 -0
-0 -0 -0 -0 -0 -0 -0 -0 -0 -0 -0 -0 -0 -0 -0 -0 -26 -7 -0 -0 -0 -0
-0 -0 -0 -0 -0 -0 -0 -0 -0 -0 -0 -0 -0 -0 -0 -0 -0 -0 -0 -0 -0 -0
-0 -0 -0 -0 -0 -0 -0 -0 -0 -0 -0 -0 -0 -0 -0 -0 -0 -0 -0 -0 -0 -0
-0 -0 -0 -0 -0 -0 -0 -0 -0 -0 -0 -0 -0 -0 -0 -0 -0 -0 -0 -0 -0 -0
-0 -0 -0 -0 -0 -0 -0 -0 -0 -0 -0 -0 -0 -0 -0 -0 -0 -0 -0 -0 -0 -0
Wind_Speed
35 34 34 34 33 33 33 32 32 31 30 30 29 30 29 28 28 27 28 26 24 23
35 35 34 33 33 31 31 30 30 29 29 28 29 29 30 29 30 30 30 29 27 24
33 33 32 31 31 31 31 30 29 29 28 29 29 29 31 30 30 29 29 29 28 26
31 31 31 29 29 28 28 29 29 29 28 28 30 30 30 30 30 30 29 29 28 27
29 29 27 27 26 26 27 29 30 29 29 29 30 30 30 29 30 30 30 29 29 29
27 26 25 25 24 26 28 30 31 31 31 31 32 31 30 29 30 30 30 29 29 29
24 24 23 23 25 27 28 30 31 31 32 32 32 32 30 30 30 31 32 31 27 27
20 19 22 24 26 27 28 29 30 31 32 32 32 31 27 27 28 30 33 32 30 29
17 21 22 21 24 27 28 29 30 31 32 33 33 34 30 24 25 28 31 31 32 30
7 6 10 14 27 26 25 25 28 30 32 33 34 34 34 28 24 26 28 29 31 32
7 6 14 23 27 24 21 22 24 28 31 33 32 34 33 31 29 28 27 27 29 30
7 6 20 27 30 27 25 22 22 26 30 33 32 33 34 31 31 31 30 30 29 30
7 21 19 21 27 29 27 26 24 26 30 32 33 33 33 32 32 32 31 32 32 34
20 22 25 22 23 26 28 27 27 27 28 29 31 32 33 33 32 31 31 31 32 33
Wind_Direction
341 342 343 344 344 344 344 344 345 347 350 352 355 356 359 3 2 3 358 351 347 343
341 341 343 344 345 347 346 350 351 352 356 358 356 360 2 6 3 4 4 6 7 8
343 345 346 345 342 343 343 344 347 351 356 357 2 6 3 4 5 7 7 8 7 6
350 347 344 348 346 344 347 353 355 359 3 4 3 2 5 7 9 8 6 4 2 359
350 351 353 358 356 354 3 8 10 11 9 8 9 10 12 11 8 7 5 5 5 3
358 3 6 2 358 3 9 16 17 21 21 19 16 14 14 17 18 15 12 9 8 6
5 4 1 356 3 14 20 19 24 25 22 20 20 21 22 23 21 18 13 9 9 8
344 345 358 5 9 20 26 24 25 22 20 19 20 19 20 23 22 19 14 15 15 15
338 357 359 347 354 23 29 27 25 28 26 22 21 17 20 28 25 20 19 19 20 20
198 230 294 305 6 27 31 33 32 31 26 23 20 19 20 27 30 26 24 21 18 13
193 255 305 346 20 34 42 38 36 31 27 24 23 21 21 24 24 20 19 18 13 9
232 229 342 23 25 31 34 41 42 36 28 24 24 21 19 20 19 17 16 16 14 9
151 58 64 52 35 34 40 42 45 37 28 24 22 20 20 20 20 17 17 13 10 5
74 66 53 54 47 40 37 38 35 29 27 26 26 25 24 22 20 19 18 16 13 10